Year,Month,Day,Hour,Minute,Value (Times are PST for temperature in C)
2020,05,10,00,00,14.60
2020,05,10,00,01,14.60
2020,05,10,00,02,14.50
2020,05,10,00,03,14.50
2020,05,10,00,04,14.50
2020,05,10,00,05,14.50
2020,05,10,00,06,14.50
2020,05,10,00,07,14.50
2020,05,10,00,08,14.50
2020,05,10,00,09,14.50
2020,05,10,00,10,14.50
2020,05,10,00,11,14.40
2020,05,10,00,12,14.40
2020,05,10,00,13,14.50
2020,05,10,00,14,14.50
2020,05,10,00,15,14.50
2020,05,10,00,16,14.50
2020,05,10,00,17,14.60
2020,05,10,00,18,14.60
2020,05,10,00,19,14.60
2020,05,10,00,20,14.60
2020,05,10,00,21,14.60
2020,05,10,00,22,14.60
2020,05,10,00,23,14.60
2020,05,10,00,24,14.60
2020,05,10,00,25,14.70
2020,05,10,00,26,14.70
2020,05,10,00,27,14.70
2020,05,10,00,28,14.70
2020,05,10,00,29,14.70
2020,05,10,00,30,14.70
2020,05,10,00,31,14.70
2020,05,10,00,32,14.70
2020,05,10,00,33,14.80
2020,05,10,00,34,14.80
2020,05,10,00,35,14.80
2020,05,10,00,36,14.80
2020,05,10,00,37,14.80
2020,05,10,00,38,14.80
2020,05,10,00,39,14.80
2020,05,10,00,40,14.80
2020,05,10,00,41,14.90
2020,05,10,00,42,14.90
2020,05,10,00,43,14.90
2020,05,10,00,44,14.90
2020,05,10,00,45,14.90
2020,05,10,00,46,14.90
2020,05,10,00,47,14.90
2020,05,10,00,48,14.90
2020,05,10,00,49,14.90
2020,05,10,00,50,15.00
2020,05,10,00,51,15.00
2020,05,10,00,52,15.00
2020,05,10,00,53,15.10
2020,05,10,00,54,15.10
2020,05,10,00,55,15.10
2020,05,10,00,56,15.00
2020,05,10,00,57,15.00
2020,05,10,00,58,15.00
2020,05,10,00,59,15.00
2020,05,10,01,00,15.00
2020,05,10,01,01,15.00
2020,05,10,01,02,15.00
2020,05,10,01,03,15.00
2020,05,10,01,04,15.00
2020,05,10,01,05,15.00
2020,05,10,01,06,15.00
2020,05,10,01,07,15.00
2020,05,10,01,08,15.00
2020,05,10,01,09,15.00
2020,05,10,01,10,15.00
2020,05,10,01,11,15.00
2020,05,10,01,12,15.00
2020,05,10,01,13,15.00
2020,05,10,01,14,15.00
2020,05,10,01,15,15.00
2020,05,10,01,16,15.00
2020,05,10,01,17,15.00
2020,05,10,01,18,15.00
2020,05,10,01,19,15.00
2020,05,10,01,20,15.00
2020,05,10,01,21,15.00
2020,05,10,01,22,15.00
2020,05,10,01,23,15.00
2020,05,10,01,24,14.90
2020,05,10,01,25,14.90
2020,05,10,01,26,14.90
2020,05,10,01,27,14.90
2020,05,10,01,28,14.90
2020,05,10,01,29,15.00
2020,05,10,01,30,15.00
2020,05,10,01,31,15.00
2020,05,10,01,32,15.10
2020,05,10,01,33,15.10
2020,05,10,01,34,15.20
2020,05,10,01,35,15.20
2020,05,10,01,36,15.20
2020,05,10,01,37,15.30
2020,05,10,01,38,15.30
2020,05,10,01,39,15.30
2020,05,10,01,40,15.30
2020,05,10,01,41,15.30
2020,05,10,01,42,15.30
2020,05,10,01,43,15.30
2020,05,10,01,44,15.30
2020,05,10,01,45,15.30
2020,05,10,01,46,15.30
2020,05,10,01,47,15.30
2020,05,10,01,48,15.30
2020,05,10,01,49,15.30
2020,05,10,01,50,15.30
2020,05,10,01,51,15.30
2020,05,10,01,52,15.20
2020,05,10,01,53,15.20
2020,05,10,01,54,15.20
2020,05,10,01,55,15.20
2020,05,10,01,56,15.20
2020,05,10,01,57,15.10
2020,05,10,01,58,15.10
2020,05,10,01,59,15.10
2020,05,10,02,00,15.10
2020,05,10,02,01,15.10
2020,05,10,02,02,15.10
2020,05,10,02,03,15.10
2020,05,10,02,04,15.00
2020,05,10,02,05,15.00
2020,05,10,02,06,15.00
2020,05,10,02,07,15.00
2020,05,10,02,08,15.00
2020,05,10,02,09,14.90
2020,05,10,02,10,14.90
2020,05,10,02,11,14.90
2020,05,10,02,12,14.90
2020,05,10,02,13,14.80
2020,05,10,02,14,14.80
2020,05,10,02,15,14.80
2020,05,10,02,16,14.80
2020,05,10,02,17,14.80
2020,05,10,02,18,14.80
2020,05,10,02,19,14.80
2020,05,10,02,20,14.80
2020,05,10,02,21,14.80
2020,05,10,02,22,14.80
2020,05,10,02,23,14.80
2020,05,10,02,24,14.80
2020,05,10,02,25,14.80
2020,05,10,02,26,14.70
2020,05,10,02,27,14.70
2020,05,10,02,28,14.70
2020,05,10,02,29,14.70
2020,05,10,02,30,14.70
2020,05,10,02,31,14.60
2020,05,10,02,32,14.60
2020,05,10,02,33,14.60
2020,05,10,02,34,14.60
2020,05,10,02,35,14.60
2020,05,10,02,36,14.60
2020,05,10,02,37,14.60
2020,05,10,02,38,14.50
2020,05,10,02,39,14.50
2020,05,10,02,40,14.50
2020,05,10,02,41,14.40
2020,05,10,02,42,14.40
2020,05,10,02,43,14.40
2020,05,10,02,44,14.40
2020,05,10,02,45,14.30
2020,05,10,02,46,14.30
2020,05,10,02,47,14.30
2020,05,10,02,48,14.30
2020,05,10,02,49,14.30
2020,05,10,02,50,14.20
2020,05,10,02,51,14.20
2020,05,10,02,52,14.20
2020,05,10,02,53,14.20
2020,05,10,02,54,14.20
2020,05,10,02,55,14.20
2020,05,10,02,56,14.20
2020,05,10,02,57,14.20
2020,05,10,02,58,14.20
2020,05,10,02,59,14.20
2020,05,10,03,00,14.20
2020,05,10,03,01,14.20
2020,05,10,03,02,14.20
2020,05,10,03,03,14.20
2020,05,10,03,04,14.20
2020,05,10,03,05,14.20
2020,05,10,03,06,14.20
2020,05,10,03,07,14.20
2020,05,10,03,08,14.20
2020,05,10,03,09,14.20
2020,05,10,03,10,14.20
2020,05,10,03,11,14.20
2020,05,10,03,12,14.20
2020,05,10,03,13,14.20
2020,05,10,03,14,14.20
2020,05,10,03,15,14.20
2020,05,10,03,16,14.20
2020,05,10,03,17,14.20
2020,05,10,03,18,14.20
2020,05,10,03,19,14.20
2020,05,10,03,20,14.20
2020,05,10,03,21,14.20
2020,05,10,03,22,14.20
2020,05,10,03,23,14.20
2020,05,10,03,24,14.20
2020,05,10,03,25,14.20
2020,05,10,03,26,14.20
2020,05,10,03,27,14.20
2020,05,10,03,28,14.20
2020,05,10,03,29,14.20
2020,05,10,03,30,14.20
2020,05,10,03,31,14.20
2020,05,10,03,32,14.20
2020,05,10,03,33,14.30
2020,05,10,03,34,14.30
2020,05,10,03,35,14.30
2020,05,10,03,36,14.30
2020,05,10,03,37,14.30
2020,05,10,03,38,14.30
2020,05,10,03,39,14.30
2020,05,10,03,40,14.30
2020,05,10,03,41,14.30
2020,05,10,03,42,14.30
2020,05,10,03,43,14.30
2020,05,10,03,44,14.20
2020,05,10,03,45,14.20
2020,05,10,03,46,14.20
2020,05,10,03,47,14.20
2020,05,10,03,48,14.20
2020,05,10,03,49,14.20
2020,05,10,03,50,14.20
2020,05,10,03,51,14.20
2020,05,10,03,52,14.20
2020,05,10,03,53,14.20
2020,05,10,03,54,14.20
2020,05,10,03,55,14.20
2020,05,10,03,56,14.20
2020,05,10,03,57,14.20
2020,05,10,03,58,14.20
2020,05,10,03,59,14.20
2020,05,10,04,00,14.20
2020,05,10,04,01,14.20
2020,05,10,04,02,14.20
2020,05,10,04,03,14.20
2020,05,10,04,04,14.20
2020,05,10,04,05,14.20
2020,05,10,04,06,14.20
2020,05,10,04,07,14.20
2020,05,10,04,08,14.20
2020,05,10,04,09,14.20
2020,05,10,04,10,14.20
2020,05,10,04,11,14.20
2020,05,10,04,12,14.20
2020,05,10,04,13,14.20
2020,05,10,04,14,14.20
2020,05,10,04,15,14.20
2020,05,10,04,16,14.20
2020,05,10,04,17,14.20
2020,05,10,04,18,14.20
2020,05,10,04,19,14.20
2020,05,10,04,20,14.20
2020,05,10,04,21,14.20
2020,05,10,04,22,14.20
2020,05,10,04,23,14.20
2020,05,10,04,24,14.20
2020,05,10,04,25,14.20
2020,05,10,04,26,14.20
2020,05,10,04,27,14.20
2020,05,10,04,28,14.20
2020,05,10,04,29,14.20
2020,05,10,04,30,14.20
2020,05,10,04,31,14.20
2020,05,10,04,32,14.30
2020,05,10,04,33,14.30
2020,05,10,04,34,14.30
2020,05,10,04,35,14.40
2020,05,10,04,36,14.40
2020,05,10,04,37,14.50
2020,05,10,04,38,14.50
2020,05,10,04,39,14.60
2020,05,10,04,40,14.70
2020,05,10,04,41,14.70
2020,05,10,04,42,14.80
2020,05,10,04,43,14.80
2020,05,10,04,44,14.90
2020,05,10,04,45,15.00
2020,05,10,04,46,15.00
2020,05,10,04,47,15.10
2020,05,10,04,48,15.10
2020,05,10,04,49,15.20
2020,05,10,04,50,15.20
2020,05,10,04,51,15.20
2020,05,10,04,52,15.30
2020,05,10,04,53,15.30
2020,05,10,04,54,15.30
2020,05,10,04,55,15.30
2020,05,10,04,56,15.30
2020,05,10,04,57,15.30
2020,05,10,04,58,15.20
2020,05,10,04,59,15.20
2020,05,10,05,00,15.20
2020,05,10,05,01,15.20
2020,05,10,05,02,15.20
2020,05,10,05,03,15.30
2020,05,10,05,04,15.30
2020,05,10,05,05,15.30
2020,05,10,05,06,15.30
2020,05,10,05,07,15.30
2020,05,10,05,08,15.30
2020,05,10,05,09,15.30
2020,05,10,05,10,15.40
2020,05,10,05,11,15.40
2020,05,10,05,12,15.40
2020,05,10,05,13,15.40
2020,05,10,05,14,15.40
2020,05,10,05,15,15.40
2020,05,10,05,16,15.40
2020,05,10,05,17,15.40
2020,05,10,05,18,15.50
2020,05,10,05,19,15.50
2020,05,10,05,20,15.50
2020,05,10,05,21,15.50
2020,05,10,05,22,15.50
2020,05,10,05,23,15.50
2020,05,10,05,24,15.50
2020,05,10,05,25,15.50
2020,05,10,05,26,15.50
2020,05,10,05,27,15.50
2020,05,10,05,28,15.40
2020,05,10,05,29,15.40
2020,05,10,05,30,15.40
2020,05,10,05,31,15.40
2020,05,10,05,32,15.40
2020,05,10,05,33,15.40
2020,05,10,05,34,15.50
2020,05,10,05,35,15.50
2020,05,10,05,36,15.50
2020,05,10,05,37,15.60
2020,05,10,05,38,15.60
2020,05,10,05,39,15.60
2020,05,10,05,40,15.60
2020,05,10,05,41,15.70
2020,05,10,05,42,15.70
2020,05,10,05,43,15.80
2020,05,10,05,44,15.80
2020,05,10,05,45,15.80
2020,05,10,05,46,15.80
2020,05,10,05,47,15.80
2020,05,10,05,48,15.80
2020,05,10,05,49,15.80
2020,05,10,05,50,15.80
2020,05,10,05,51,15.80
2020,05,10,05,52,15.80
2020,05,10,05,53,15.80
2020,05,10,05,54,15.80
2020,05,10,05,55,15.80
2020,05,10,05,56,15.80
2020,05,10,05,57,15.80
2020,05,10,05,58,15.80
2020,05,10,05,59,15.80
2020,05,10,06,00,15.80
2020,05,10,06,01,15.80
2020,05,10,06,02,15.80
2020,05,10,06,03,15.80
2020,05,10,06,04,15.80
2020,05,10,06,05,15.80
2020,05,10,06,06,15.80
2020,05,10,06,07,15.80
2020,05,10,06,08,15.80
2020,05,10,06,09,15.80
2020,05,10,06,10,15.80
2020,05,10,06,11,15.80
2020,05,10,06,12,15.80
2020,05,10,06,13,15.80
2020,05,10,06,14,15.70
2020,05,10,06,15,15.70
2020,05,10,06,16,15.70
2020,05,10,06,17,15.70
2020,05,10,06,18,15.70
2020,05,10,06,19,15.70
2020,05,10,06,20,15.70
2020,05,10,06,21,15.60
2020,05,10,06,22,15.60
2020,05,10,06,23,15.60
2020,05,10,06,24,15.60
2020,05,10,06,25,15.60
2020,05,10,06,26,15.60
2020,05,10,06,27,15.60
2020,05,10,06,28,15.60
2020,05,10,06,29,15.70
2020,05,10,06,30,15.70
2020,05,10,06,31,15.70
2020,05,10,06,32,15.70
2020,05,10,06,33,15.70
2020,05,10,06,34,15.80
2020,05,10,06,35,15.80
2020,05,10,06,36,15.80
2020,05,10,06,37,15.90
2020,05,10,06,38,16.00
2020,05,10,06,39,16.10
2020,05,10,06,40,16.10
2020,05,10,06,41,16.10
2020,05,10,06,42,16.10
2020,05,10,06,43,16.10
2020,05,10,06,44,16.10
2020,05,10,06,45,16.10
2020,05,10,06,46,16.10
2020,05,10,06,47,16.10
2020,05,10,06,48,16.20
2020,05,10,06,49,16.10
2020,05,10,06,50,16.20
2020,05,10,06,51,16.20
2020,05,10,06,52,16.20
2020,05,10,06,53,16.20
2020,05,10,06,54,16.20
2020,05,10,06,55,16.30
2020,05,10,06,56,16.30
2020,05,10,06,57,16.30
2020,05,10,06,58,16.40
2020,05,10,06,59,16.40
2020,05,10,07,00,16.60
2020,05,10,07,01,16.60
2020,05,10,07,02,16.70
2020,05,10,07,03,16.80
2020,05,10,07,04,16.80
2020,05,10,07,05,16.90
2020,05,10,07,06,16.90
2020,05,10,07,07,16.90
2020,05,10,07,08,17.00
2020,05,10,07,09,17.00
2020,05,10,07,10,17.10
2020,05,10,07,11,17.30
2020,05,10,07,12,17.30
2020,05,10,07,13,17.30
2020,05,10,07,14,17.40
2020,05,10,07,15,17.40
2020,05,10,07,16,17.50
2020,05,10,07,17,17.50
2020,05,10,07,18,17.70
2020,05,10,07,19,17.70
2020,05,10,07,20,17.80
2020,05,10,07,21,17.90
2020,05,10,07,22,17.90
2020,05,10,07,23,18.00
2020,05,10,07,24,18.10
2020,05,10,07,25,18.20
2020,05,10,07,26,18.20
2020,05,10,07,27,18.20
2020,05,10,07,28,18.30
2020,05,10,07,29,18.30
2020,05,10,07,30,18.40
2020,05,10,07,31,18.40
2020,05,10,07,32,18.40
2020,05,10,07,33,18.50
2020,05,10,07,34,18.60
2020,05,10,07,35,18.60
2020,05,10,07,36,18.60
2020,05,10,07,37,18.70
2020,05,10,07,38,18.70
2020,05,10,07,39,18.70
2020,05,10,07,40,18.80
2020,05,10,07,41,18.80
2020,05,10,07,42,18.80
2020,05,10,07,43,18.80
2020,05,10,07,44,18.90
2020,05,10,07,45,18.90
2020,05,10,07,46,18.90
2020,05,10,07,47,18.90
2020,05,10,07,48,18.90
2020,05,10,07,49,19.00
2020,05,10,07,50,19.10
2020,05,10,07,51,19.10
2020,05,10,07,52,19.10
2020,05,10,07,53,19.20
2020,05,10,07,54,19.30
2020,05,10,07,55,19.40
2020,05,10,07,56,19.50
2020,05,10,07,57,19.60
2020,05,10,07,58,19.60
2020,05,10,07,59,19.60
2020,05,10,08,00,19.60
2020,05,10,08,01,19.60
2020,05,10,08,02,19.60
2020,05,10,08,03,19.70
2020,05,10,08,04,19.70
2020,05,10,08,05,19.70
2020,05,10,08,06,19.80
2020,05,10,08,07,19.90
2020,05,10,08,08,19.90
2020,05,10,08,09,19.90
2020,05,10,08,10,20.00
2020,05,10,08,11,20.10
2020,05,10,08,12,20.10
2020,05,10,08,13,20.10
2020,05,10,08,14,20.20
2020,05,10,08,15,20.20
2020,05,10,08,16,20.20
2020,05,10,08,17,20.20
2020,05,10,08,18,20.20
2020,05,10,08,19,20.20
2020,05,10,08,20,20.30
2020,05,10,08,21,20.30
2020,05,10,08,22,20.30
2020,05,10,08,23,20.30
2020,05,10,08,24,20.30
2020,05,10,08,25,20.30
2020,05,10,08,26,20.40
2020,05,10,08,27,20.40
2020,05,10,08,28,20.50
2020,05,10,08,29,20.50
2020,05,10,08,30,20.50
2020,05,10,08,31,20.50
2020,05,10,08,32,20.60
2020,05,10,08,33,20.60
2020,05,10,08,34,20.70
2020,05,10,08,35,20.70
2020,05,10,08,36,20.80
2020,05,10,08,37,20.80
2020,05,10,08,38,20.80
2020,05,10,08,39,20.80
2020,05,10,08,40,20.90
2020,05,10,08,41,20.90
2020,05,10,08,42,21.00
2020,05,10,08,43,21.00
2020,05,10,08,44,21.00
2020,05,10,08,45,21.10
2020,05,10,08,46,21.10
2020,05,10,08,47,21.20
2020,05,10,08,48,21.20
2020,05,10,08,49,21.30
2020,05,10,08,50,21.30
2020,05,10,08,51,21.30
2020,05,10,08,52,21.30
2020,05,10,08,53,21.40
2020,05,10,08,54,21.50
2020,05,10,08,55,21.60
2020,05,10,08,56,21.60
2020,05,10,08,57,21.60
2020,05,10,08,58,21.60
2020,05,10,08,59,21.60
2020,05,10,09,00,21.60
2020,05,10,09,01,21.60
2020,05,10,09,02,21.70
2020,05,10,09,03,21.70
2020,05,10,09,04,21.70
2020,05,10,09,05,21.70
2020,05,10,09,06,21.60
2020,05,10,09,07,21.60
2020,05,10,09,08,21.60
2020,05,10,09,09,21.60
2020,05,10,09,10,21.70
2020,05,10,09,11,21.70
2020,05,10,09,12,21.80
2020,05,10,09,13,21.80
2020,05,10,09,14,21.90
2020,05,10,09,15,21.90
2020,05,10,09,16,22.00
2020,05,10,09,17,22.00
2020,05,10,09,18,21.90
2020,05,10,09,19,21.90
2020,05,10,09,20,21.80
2020,05,10,09,21,21.70
2020,05,10,09,22,21.80
2020,05,10,09,23,21.80
2020,05,10,09,24,21.90
2020,05,10,09,25,21.90
2020,05,10,09,26,21.80
2020,05,10,09,27,21.80
2020,05,10,09,28,21.80
2020,05,10,09,29,21.90
2020,05,10,09,30,22.00
2020,05,10,09,31,22.00
2020,05,10,09,32,22.10
2020,05,10,09,33,22.20
2020,05,10,09,34,22.20
2020,05,10,09,35,22.20
2020,05,10,09,36,22.20
2020,05,10,09,37,22.30
2020,05,10,09,38,22.30
2020,05,10,09,39,22.20
2020,05,10,09,40,22.20
2020,05,10,09,41,22.20
2020,05,10,09,42,22.20
2020,05,10,09,43,22.20
2020,05,10,09,44,22.30
2020,05,10,09,45,22.20
2020,05,10,09,46,22.20
2020,05,10,09,47,22.10
2020,05,10,09,48,22.10
2020,05,10,09,49,22.00
2020,05,10,09,50,22.00
2020,05,10,09,51,22.00
2020,05,10,09,52,22.00
2020,05,10,09,53,22.10
2020,05,10,09,54,22.20
2020,05,10,09,55,22.30
2020,05,10,09,56,22.30
2020,05,10,09,57,22.30
2020,05,10,09,58,22.20
2020,05,10,09,59,22.20
2020,05,10,10,00,22.20
2020,05,10,10,01,22.20
2020,05,10,10,02,22.20
2020,05,10,10,03,22.20
2020,05,10,10,04,22.30
2020,05,10,10,05,22.30
2020,05,10,10,06,22.30
2020,05,10,10,07,22.40
2020,05,10,10,08,22.40
2020,05,10,10,09,22.50
2020,05,10,10,10,22.40
2020,05,10,10,11,22.40
2020,05,10,10,12,22.50
2020,05,10,10,13,22.50
2020,05,10,10,14,22.50
2020,05,10,10,15,22.60
2020,05,10,10,16,22.50
2020,05,10,10,17,22.50
2020,05,10,10,18,22.50
2020,05,10,10,19,22.40
2020,05,10,10,20,22.30
2020,05,10,10,21,22.20
2020,05,10,10,22,22.20
2020,05,10,10,23,22.20
2020,05,10,10,24,22.30
2020,05,10,10,25,22.30
2020,05,10,10,26,22.40
2020,05,10,10,27,22.40
2020,05,10,10,28,22.50
2020,05,10,10,29,22.50
2020,05,10,10,30,22.50
2020,05,10,10,31,22.50
2020,05,10,10,32,22.40
2020,05,10,10,33,22.40
2020,05,10,10,34,22.50
2020,05,10,10,35,22.50
2020,05,10,10,36,22.60
2020,05,10,10,37,22.70
2020,05,10,10,38,22.80
2020,05,10,10,39,22.90
2020,05,10,10,40,22.90
2020,05,10,10,41,22.90
2020,05,10,10,42,22.80
2020,05,10,10,43,22.60
2020,05,10,10,44,22.60
2020,05,10,10,45,22.60
2020,05,10,10,46,22.60
2020,05,10,10,47,22.60
2020,05,10,10,48,22.60
2020,05,10,10,49,22.60
2020,05,10,10,50,22.60
2020,05,10,10,51,22.70
2020,05,10,10,52,22.60
2020,05,10,10,53,22.60
2020,05,10,10,54,22.50
2020,05,10,10,55,22.40
2020,05,10,10,56,22.40
2020,05,10,10,57,22.50
2020,05,10,10,58,22.50
2020,05,10,10,59,22.50
2020,05,10,11,00,22.40
2020,05,10,11,01,22.30
2020,05,10,11,02,22.30
2020,05,10,11,03,22.40
2020,05,10,11,04,22.50
2020,05,10,11,05,22.60
2020,05,10,11,06,22.70
2020,05,10,11,07,22.80
2020,05,10,11,08,22.90
2020,05,10,11,09,22.90
2020,05,10,11,10,22.90
2020,05,10,11,11,22.90
2020,05,10,11,12,22.90
2020,05,10,11,13,23.00
2020,05,10,11,14,23.10
2020,05,10,11,15,23.10
2020,05,10,11,16,23.10
2020,05,10,11,17,23.10
2020,05,10,11,18,23.10
2020,05,10,11,19,23.00
2020,05,10,11,20,22.90
2020,05,10,11,21,22.90
2020,05,10,11,22,22.90
2020,05,10,11,23,22.80
2020,05,10,11,24,22.80
2020,05,10,11,25,22.90
2020,05,10,11,26,22.90
2020,05,10,11,27,23.10
2020,05,10,11,28,23.20
2020,05,10,11,29,23.30
2020,05,10,11,30,23.30
2020,05,10,11,31,23.20
2020,05,10,11,32,23.10
2020,05,10,11,33,23.10
2020,05,10,11,34,23.10
2020,05,10,11,35,23.20
2020,05,10,11,36,23.20
2020,05,10,11,37,23.20
2020,05,10,11,38,23.20
2020,05,10,11,39,23.20
2020,05,10,11,40,23.20
2020,05,10,11,41,23.30
2020,05,10,11,42,23.30
2020,05,10,11,43,23.30
2020,05,10,11,44,23.40
2020,05,10,11,45,23.50
2020,05,10,11,46,23.70
2020,05,10,11,47,23.70
2020,05,10,11,48,23.60
2020,05,10,11,49,23.60
2020,05,10,11,50,23.70
2020,05,10,11,51,23.70
2020,05,10,11,52,23.70
2020,05,10,11,53,23.70
2020,05,10,11,54,23.70
2020,05,10,11,55,23.70
2020,05,10,11,56,23.70
2020,05,10,11,57,23.70
2020,05,10,11,58,23.70
2020,05,10,11,59,23.80
2020,05,10,12,00,23.80
2020,05,10,12,01,23.80
2020,05,10,12,02,23.90
2020,05,10,12,03,24.00
2020,05,10,12,04,24.10
2020,05,10,12,05,24.10
2020,05,10,12,06,24.10
2020,05,10,12,07,24.10
2020,05,10,12,08,24.10
2020,05,10,12,09,24.10
2020,05,10,12,10,24.20
2020,05,10,12,11,24.20
2020,05,10,12,12,24.30
2020,05,10,12,13,24.20
2020,05,10,12,14,24.10
2020,05,10,12,15,24.20
2020,05,10,12,16,24.20
2020,05,10,12,17,24.20
2020,05,10,12,18,24.10
2020,05,10,12,19,24.20
2020,05,10,12,20,24.30
2020,05,10,12,21,24.30
2020,05,10,12,22,24.20
2020,05,10,12,23,24.20
2020,05,10,12,24,24.10
2020,05,10,12,25,24.10
2020,05,10,12,26,24.20
2020,05,10,12,27,24.30
2020,05,10,12,28,24.40
2020,05,10,12,29,24.40
2020,05,10,12,30,24.40
2020,05,10,12,31,24.30
2020,05,10,12,32,24.40
2020,05,10,12,33,24.50
2020,05,10,12,34,24.60
2020,05,10,12,35,24.60
2020,05,10,12,36,24.60
2020,05,10,12,37,24.70
2020,05,10,12,38,24.80
2020,05,10,12,39,24.90
2020,05,10,12,40,24.90
2020,05,10,12,41,25.00
2020,05,10,12,42,25.00
2020,05,10,12,43,25.00
2020,05,10,12,44,24.90
2020,05,10,12,45,25.00
2020,05,10,12,46,24.90
2020,05,10,12,47,24.90
2020,05,10,12,48,24.90
2020,05,10,12,49,24.90
2020,05,10,12,50,25.00
2020,05,10,12,51,25.20
2020,05,10,12,52,25.30
2020,05,10,12,53,25.20
2020,05,10,12,54,25.20
2020,05,10,12,55,25.20
2020,05,10,12,56,25.10
2020,05,10,12,57,25.00
2020,05,10,12,58,24.90
2020,05,10,12,59,24.80
2020,05,10,13,00,24.70
2020,05,10,13,01,24.70
2020,05,10,13,02,24.70
2020,05,10,13,03,24.70
2020,05,10,13,04,24.70
2020,05,10,13,05,24.70
2020,05,10,13,06,24.70
2020,05,10,13,07,24.70
2020,05,10,13,08,24.70
2020,05,10,13,09,24.70
2020,05,10,13,10,24.80
2020,05,10,13,11,24.90
2020,05,10,13,12,24.90
2020,05,10,13,13,24.90
2020,05,10,13,14,24.90
2020,05,10,13,15,24.90
2020,05,10,13,16,25.00
2020,05,10,13,17,25.10
2020,05,10,13,18,25.20
2020,05,10,13,19,25.20
2020,05,10,13,20,25.20
2020,05,10,13,21,25.40
2020,05,10,13,22,25.50
2020,05,10,13,23,25.50
2020,05,10,13,24,25.60
2020,05,10,13,25,25.60
2020,05,10,13,26,25.60
2020,05,10,13,27,25.50
2020,05,10,13,28,25.40
2020,05,10,13,29,25.40
2020,05,10,13,30,25.40
2020,05,10,13,31,25.40
2020,05,10,13,32,25.40
2020,05,10,13,33,25.40
2020,05,10,13,34,25.40
2020,05,10,13,35,25.50
2020,05,10,13,36,25.50
2020,05,10,13,37,25.40
2020,05,10,13,38,25.30
2020,05,10,13,39,25.30
2020,05,10,13,40,25.30
2020,05,10,13,41,25.30
2020,05,10,13,42,25.30
2020,05,10,13,43,25.20
2020,05,10,13,44,25.20
2020,05,10,13,45,25.20
2020,05,10,13,46,25.20
2020,05,10,13,47,25.20
2020,05,10,13,48,25.30
2020,05,10,13,49,25.40
2020,05,10,13,50,25.40
2020,05,10,13,51,25.40
2020,05,10,13,52,25.30
2020,05,10,13,53,25.30
2020,05,10,13,54,25.20
2020,05,10,13,55,25.30
2020,05,10,13,56,25.30
2020,05,10,13,57,25.30
2020,05,10,13,58,25.30
2020,05,10,13,59,25.40
2020,05,10,14,00,25.50
2020,05,10,14,01,25.50
2020,05,10,14,02,25.50
2020,05,10,14,03,25.40
2020,05,10,14,04,25.40
2020,05,10,14,05,25.40
2020,05,10,14,06,25.40
2020,05,10,14,07,25.40
2020,05,10,14,08,25.40
2020,05,10,14,09,25.40
2020,05,10,14,10,25.40
2020,05,10,14,11,25.40
2020,05,10,14,12,25.50
2020,05,10,14,13,25.50
2020,05,10,14,14,25.50
2020,05,10,14,15,25.50
2020,05,10,14,16,25.40
2020,05,10,14,17,25.40
2020,05,10,14,18,25.30
2020,05,10,14,19,25.40
2020,05,10,14,20,25.50
2020,05,10,14,21,25.50
2020,05,10,14,22,25.50
2020,05,10,14,23,25.50
2020,05,10,14,24,25.50
2020,05,10,14,25,25.50
2020,05,10,14,26,25.50
2020,05,10,14,27,25.70
2020,05,10,14,28,25.80
2020,05,10,14,29,25.80
2020,05,10,14,30,25.90
2020,05,10,14,31,26.00
2020,05,10,14,32,25.90
2020,05,10,14,33,25.80
2020,05,10,14,34,25.70
2020,05,10,14,35,25.70
2020,05,10,14,36,25.70
2020,05,10,14,37,25.70
2020,05,10,14,38,25.70
2020,05,10,14,39,25.70
2020,05,10,14,40,25.70
2020,05,10,14,41,25.70
2020,05,10,14,42,25.80
2020,05,10,14,43,25.80
2020,05,10,14,44,25.60
2020,05,10,14,45,25.60
2020,05,10,14,46,25.60
2020,05,10,14,47,25.50
2020,05,10,14,48,25.60
2020,05,10,14,49,25.60
2020,05,10,14,50,25.60
2020,05,10,14,51,25.50
2020,05,10,14,52,25.50
2020,05,10,14,53,25.50
2020,05,10,14,54,25.50
2020,05,10,14,55,25.50
2020,05,10,14,56,25.50
2020,05,10,14,57,25.50
2020,05,10,14,58,25.50
2020,05,10,14,59,25.50
2020,05,10,15,00,25.50
2020,05,10,15,01,25.60
2020,05,10,15,02,25.50
2020,05,10,15,03,25.40
2020,05,10,15,04,25.40
2020,05,10,15,05,25.40
2020,05,10,15,06,25.40
2020,05,10,15,07,25.40
2020,05,10,15,08,25.40
2020,05,10,15,09,25.50
2020,05,10,15,10,25.50
2020,05,10,15,11,25.60
2020,05,10,15,12,25.50
2020,05,10,15,13,25.50
2020,05,10,15,14,25.60
2020,05,10,15,15,25.60
2020,05,10,15,16,25.50
2020,05,10,15,17,25.50
2020,05,10,15,18,25.60
2020,05,10,15,19,25.60
2020,05,10,15,20,25.60
2020,05,10,15,21,25.60
2020,05,10,15,22,25.60
2020,05,10,15,23,25.70
2020,05,10,15,24,25.60
2020,05,10,15,25,25.60
2020,05,10,15,26,25.60
2020,05,10,15,27,25.70
2020,05,10,15,28,25.70
2020,05,10,15,29,25.80
2020,05,10,15,30,25.80
2020,05,10,15,31,25.80
2020,05,10,15,32,25.70
2020,05,10,15,33,25.70
2020,05,10,15,34,25.70
2020,05,10,15,35,25.70
2020,05,10,15,36,25.80
2020,05,10,15,37,25.90
2020,05,10,15,38,25.90
2020,05,10,15,39,26.00
2020,05,10,15,40,26.00
2020,05,10,15,41,26.00
2020,05,10,15,42,26.00
2020,05,10,15,43,26.00
2020,05,10,15,44,26.00
2020,05,10,15,45,26.00
2020,05,10,15,46,26.00
2020,05,10,15,47,25.90
2020,05,10,15,48,25.90
2020,05,10,15,49,25.90
2020,05,10,15,50,26.00
2020,05,10,15,51,26.00
2020,05,10,15,52,25.90
2020,05,10,15,53,25.90
2020,05,10,15,54,25.90
2020,05,10,15,55,25.90
2020,05,10,15,56,25.90
2020,05,10,15,57,25.90
2020,05,10,15,58,25.90
2020,05,10,15,59,25.90
2020,05,10,16,00,25.90
2020,05,10,16,01,25.90
2020,05,10,16,02,25.90
2020,05,10,16,03,26.00
2020,05,10,16,04,26.00
2020,05,10,16,05,26.10
2020,05,10,16,06,26.20
2020,05,10,16,07,26.30
2020,05,10,16,08,26.40
2020,05,10,16,09,26.40
2020,05,10,16,10,26.40
2020,05,10,16,11,26.50
2020,05,10,16,12,26.60
2020,05,10,16,13,26.60
2020,05,10,16,14,26.60
2020,05,10,16,15,26.60
2020,05,10,16,16,26.70
2020,05,10,16,17,26.70
2020,05,10,16,18,26.80
2020,05,10,16,19,26.70
2020,05,10,16,20,26.70
2020,05,10,16,21,26.70
2020,05,10,16,22,26.80
2020,05,10,16,23,26.80
2020,05,10,16,24,26.90
2020,05,10,16,25,26.90
2020,05,10,16,26,26.90
2020,05,10,16,27,26.80
2020,05,10,16,28,26.80
2020,05,10,16,29,26.80
2020,05,10,16,30,26.80
2020,05,10,16,31,26.80
2020,05,10,16,32,26.80
2020,05,10,16,33,26.90
2020,05,10,16,34,26.90
2020,05,10,16,35,26.90
2020,05,10,16,36,26.80
2020,05,10,16,37,26.80
2020,05,10,16,38,26.70
2020,05,10,16,39,26.60
2020,05,10,16,40,26.60
2020,05,10,16,41,26.60
2020,05,10,16,42,26.60
2020,05,10,16,43,26.50
2020,05,10,16,44,26.40
2020,05,10,16,45,26.40
2020,05,10,16,46,26.40
2020,05,10,16,47,26.30
2020,05,10,16,48,26.30
2020,05,10,16,49,26.40
2020,05,10,16,50,26.40
2020,05,10,16,51,26.40
2020,05,10,16,52,26.40
2020,05,10,16,53,26.40
2020,05,10,16,54,26.50
2020,05,10,16,55,26.60
2020,05,10,16,56,26.50
2020,05,10,16,57,26.40
2020,05,10,16,58,26.40
2020,05,10,16,59,26.40
2020,05,10,17,00,26.40
2020,05,10,17,01,26.40
2020,05,10,17,02,26.50
2020,05,10,17,03,26.60
2020,05,10,17,04,26.60
2020,05,10,17,05,26.60
2020,05,10,17,06,26.60
2020,05,10,17,07,26.70
2020,05,10,17,08,26.70
2020,05,10,17,09,26.70
2020,05,10,17,10,26.70
2020,05,10,17,11,26.70
2020,05,10,17,12,26.60
2020,05,10,17,13,26.60
2020,05,10,17,14,26.60
2020,05,10,17,15,26.50
2020,05,10,17,16,26.40
2020,05,10,17,17,26.40
2020,05,10,17,18,26.40
2020,05,10,17,19,26.40